CW6575 Weather Reports


Display with metric or nautical units.
time (UTC)temp
F
wind
direction
speed
MPH
gust
MPH
rain 1hr
in
rain 24hr
in
rain mn
in
humidity
%
barometer
mb
20260903000016 76 144 0.0 3.0 0.00 0.00 0.00 86 1015.3
20260902234514 76 161 0.0 2.0 0.00 0.00 0.00 84 1015.4
20260902233016 77 146 2.0 3.0 0.00 0.00 0.00 82 1015.4
20260902231514 80 176 1.0 2.0 0.00 0.00 0.00 77 1015.4
20260902230016 84 275 0.0 3.0 0.00 0.00 0.00 66 1015.5
20260902224514 86 294 0.0 2.0 0.00 0.00 0.00 65 1015.3
20260902223015 86 311 0.0 1.0 0.00 0.00 0.00 66 1015.4
20260902221518 87 311 0.0 3.0 0.00 0.00 0.00 58 1015.3
20260902220111 87 292 1.0 4.0 0.00 0.00 0.00 57 1015.3
20260902214510 88 331 1.0 3.0 0.00 0.00 0.00 56 1015.4
20260902213010 89 299 1.0 3.0 0.00 0.00 0.00 56 1015.4
20260902211514 88 355 0.0 3.0 0.00 0.00 0.00 61 1015.2
20260902210006 87 333 1.0 4.0 0.00 0.00 0.00 59 1015.5
20260902204504 88 330 2.0 5.0 0.00 0.00 0.00 59 1015.6
20260902203004 88 42 2.0 6.0 0.00 0.00 0.00 59 1015.7
20260902201503 88 293 1.0 5.0 0.00 0.00 0.00 58 1015.6
20260902194602 87 327 2.0 4.0 0.00 0.00 0.00 61 1015.8
20260902193057 87 330 2.0 5.0 0.00 0.00 0.00 61 1016.1
20260902191556 87 344 2.0 4.0 0.00 0.00 0.00 62 1016.2
20260902190058 88 329 1.0 5.0 0.00 0.00 0.00 59 1016.3
20260902184553 87 350 2.0 5.0 0.00 0.00 0.00 61 1016.4
20260902183105 88 332 0.0 4.0 0.00 0.00 0.00 62 1016.5
20260902181601 87 326 1.0 5.0 0.00 0.00 0.00 59 1016.7
20260902180050 86 317 1.0 4.0 0.00 0.00 0.00 62 1016.9
20260902174549 88 277 2.0 5.0 0.00 0.00 0.00 61 1017.1
20260902173057 86 325 0.0 4.0 0.00 0.00 0.00 62 1017.1
20260902171547 85 11 0.0 3.0 0.00 0.00 0.00 67 1017.3
20260902170049 86 346 1.0 3.0 0.00 0.00 0.00 63 1017.4
20260902164544 85 298 0.0 3.0 0.00 0.00 0.00 66 1017.5
20260902163045 86 313 1.0 5.0 0.00 0.00 0.00 63 1017.6
20260902161541 84 315 0.0 4.0 0.00 0.00 0.00 67 1017.7
20260902160043 86 311 0.0 4.0 0.00 0.00 0.00 63 1017.8
20260902154539 85 303 0.0 4.0 0.00 0.00 0.00 67 1017.9
20260902153044 84 304 1.0 5.0 0.00 0.00 0.00 66 1017.9
20260902151537 84 291 0.0 2.0 0.00 0.00 0.00 70 1018.1
20260902150033 83 313 0.0 3.0 0.00 0.00 0.00 69 1018.3
20260902144528 82 150 0.0 4.0 0.00 0.00 0.00 70 1018.1
20260902143024 80 159 0.0 3.0 0.00 0.00 0.00 76 1018.1
20260902141520 77 136 2.0 3.0 0.00 0.00 0.00 82 1018.2
20260902140016 75 148 0.0 2.0 0.00 0.00 0.00 86 1018.1
20260902134511 74 159 2.0 3.0 0.00 0.00 0.00 89 1018.0
20260902133010 73 138 0.0 6.0 0.00 0.00 0.00 93 1018.1
20260902131502 71 134 1.0 3.0 0.00 0.00 0.00 96 1018.1
20260902130107 70 171 1.0 3.0 0.00 0.00 0.00 96 1018.0
20260902124600 68 149 0.0 0.0 0.00 0.00 0.00 96 1017.9
20260902123101 67 149 0.0 0.0 0.00 0.00 0.00 96 1017.9
20260902121556 66 149 0.0 0.0 0.00 0.00 0.00 96 1017.9
20260902120056 66 149 0.0 0.0 0.00 0.00 0.00 95 1017.9
20260902114555 65 149 0.0 2.0 0.00 0.00 0.00 95 1017.8
20260902113054 65 149 0.0 1.0 0.00 0.00 0.00 95 1017.8
20260902111558 65 149 0.0 2.0 0.00 0.00 0.00 95 1017.9
20260902110059 65 149 0.0 0.0 0.00 0.00 0.00 95 1017.9
20260902104610 65 149 0.0 0.0 0.00 0.00 0.00 95 1018.0
20260902103107 65 149 0.0 0.0 0.00 0.00 0.00 95 1017.9
20260902101600 65 149 0.0 0.0 0.00 0.00 0.00 95 1018.0
20260902100049 65 149 0.0 0.0 0.00 0.00 0.00 95 1017.9
20260902094548 65 149 0.0 0.0 0.00 0.00 0.00 95 1018.0
20260902093048 65 149 0.0 0.0 0.00 0.00 0.00 95 1017.8
20260902091549 65 149 0.0 0.0 0.00 0.00 0.00 95 1017.7
20260902090045 66 149 0.0 0.0 0.00 0.00 0.00 95 1017.7
20260902084543 66 149 0.0 0.0 0.00 0.00 0.00 95 1017.7
20260902083050 66 149 0.0 0.0 0.00 0.00 0.00 95 1017.6
20260902081541 66 149 0.0 0.0 0.00 0.00 0.00 95 1017.6
20260902080039 67 149 0.0 2.0 0.00 0.00 0.00 95 1017.3
20260902074537 67 138 1.0 3.0 0.00 0.00 0.00 95 1017.2
20260902073036 67 163 0.0 2.0 0.00 0.00 0.00 95 1017.1
20260902071536 67 163 1.0 3.0 0.00 0.00 0.00 95 1017.1
20260902070035 68 163 0.0 3.0 0.00 0.00 0.00 95 1017.2
20260902064535 68 163 1.0 2.0 0.00 0.00 0.00 95 1017.2
20260902063050 68 163 2.0 4.0 0.00 0.00 0.00 94 1017.2
20260902061556 67 150 0.0 2.0 0.00 0.00 0.00 94 1017.3
20260902060039 68 150 0.0 0.0 0.00 0.00 0.00 94 1017.3
20260902054533 69 150 0.0 2.0 0.00 0.00 0.00 93 1017.2
20260902053032 70 141 1.0 4.0 0.00 0.00 0.00 94 1017.3
20260902051528 69 144 0.0 2.0 0.00 0.00 0.00 94 1017.1
20260902050026 69 165 2.0 3.0 0.00 0.00 0.00 94 1017.0
20260902044551 69 138 1.0 3.0 0.00 0.00 0.00 93 1016.9
20260902043021 70 144 0.0 3.0 0.00 0.00 0.00 93 1016.9
20260902041520 70 162 1.0 3.0 0.00 0.00 0.00 93 1016.8
20260902040018 70 157 2.0 4.0 0.00 0.00 0.00 93 1016.7
20260902034517 70 175 1.0 3.0 0.00 0.00 0.00 93 1016.6
20260902033017 70 155 2.0 6.0 0.00 0.00 0.00 94 1016.6
20260902031536 70 168 1.0 3.0 0.00 0.00 0.00 93 1016.7
20260902030015 70 146 2.0 4.0 0.00 0.00 0.00 93 1016.7
20260902024515 70 176 1.0 3.0 0.00 0.00 0.00 93 1016.8
20260902023021 71 159 0.0 2.0 0.00 0.00 0.00 93 1016.8
20260902021514 71 171 0.0 5.0 0.00 0.00 0.00 93 1016.7
20260902020014 71 177 1.0 3.0 0.00 0.00 0.00 93 1016.7
20260902014515 71 161 1.0 3.0 0.00 0.00 0.00 93 1016.7
20260902013012 72 157 1.0 3.0 0.00 0.00 0.00 93 1016.7
20260902011516 72 155 0.0 2.0 0.00 0.00 0.00 93 1016.7
20260902010010 72 182 1.0 3.0 0.00 0.00 0.00 93 1016.7
20260902004510 72 155 1.0 3.0 0.00 0.00 0.00 92 1016.3
20260902003010 73 155 0.0 3.0 0.00 0.00 0.00 92 1016.3
20260902001510 74 153 1.0 4.0 0.00 0.00 0.00 91 1016.1